Simultaneous Nadir Overpasses (SNOs) Predictions

Prediction of SNOs between TERRA and METOP-C Satellite Orbit:

Table of predicted SNOs for the next 14.0 days since TLE Epoch: 4/30/2022
Index Date (TERRA) Time (TERRA) Lat,Lon (TERRA) SZA (TERRA ) Date (METOP-C) Time (METOP-C) Lat,Lon (METOP-C) SZA (METOP-C ) Distance(km) Time Diff (sec)
1 05/01/2022 13:56:19 81.19, 12.61 68.37 05/01/2022 13:55:10 81.18, 12.43 68.32 3.27 69
2 05/01/2022 14:45:45 -81.21,-179.49 111.60 05/01/2022 14:45:48 -81.20,-179.56 111.61 1.36 3
3 05/04/2022 09:30:29 81.19, 78.99 67.55 05/04/2022 09:29:30 81.19, 79.08 67.53 1.67 59
4 05/04/2022 10:19:55 -81.20,-113.09 112.43 05/04/2022 10:20:09 -81.20,-113.25 112.44 2.90 14
5 05/07/2022 05:04:38 81.20, 145.56 66.78 05/07/2022 05:03:50 81.19, 145.67 66.77 1.83 48
6 05/07/2022 05:54:05 -81.19, -46.85 113.24 05/07/2022 05:54:30 -81.19, -47.01 113.25 2.63 25
7 05/10/2022 00:38:46 81.19,-148.03 66.02 05/10/2022 00:38:10 81.18,-148.20 65.98 3.05 36
8 05/10/2022 01:28:13 -81.19, 19.58 114.00 05/10/2022 01:28:49 -81.20, 19.56 113.98 0.75 36
9 05/12/2022 20:12:55 81.18, -81.78 65.28 05/12/2022 20:12:30 81.19, -81.75 65.27 0.80 25



Historial Predications of SNOs between TERRA and METOP-C
